EW7749 Weather Reports


time (UTC)temp
C
wind
direction
speed
KPH
gust
KPH
rain 1hr
cm
rain 24hr
cm
rain mn
cm
humidity
%
barometer
mb
20260506205057 21 324 3.2 9.7 0.00 0.05 0.05 72 1013.0
20260506203936 21 11 4.8 9.7 0.00 0.05 0.05 72 1013.0
20260506203436 22 316 3.2 8.0 0.00 0.05 0.05 73 1012.9
20260506202937 21 334 3.2 9.7 0.00 0.05 0.05 74 1012.8
20260506202437 21 312 1.6 9.7 0.00 0.05 0.05 75 1012.9
20260506201935 21 358 3.2 9.7 0.00 0.05 0.05 75 1012.8
20260506201436 21 334 3.2 11.3 0.00 0.05 0.05 74 1012.7
20260506200938 22 336 3.2 11.3 0.00 0.05 0.05 76 1012.6
20260506200440 22 343 3.2 11.3 0.00 0.05 0.05 75 1012.5
20260506200436 21 316 3.2 11.3 0.00 0.05 0.05 76 1012.6
20260506195435 22 351 3.2 16.1 0.00 0.05 0.05 74 1012.4
20260506194936 22 32 3.2 16.1 0.00 0.05 0.05 73 1012.4
20260506194439 24 331 3.2 8.0 0.00 0.05 0.05 73 1012.2
20260506194435 23 319 6.4 16.1 0.00 0.05 0.05 71 1012.4
20260506193435 25 336 1.6 6.4 0.00 0.05 0.05 73 1012.1
20260506192934 25 344 1.6 6.4 0.00 0.05 0.05 73 1012.1
20260506192434 25 327 1.6 9.7 0.00 0.05 0.05 72 1012.1
20260506191934 25 79 3.2 9.7 0.00 0.05 0.05 73 1012.0
20260506191435 25 331 1.6 6.4 0.00 0.05 0.05 72 1012.1
20260506190935 25 348 3.2 6.4 0.00 0.05 0.05 71 1012.3
20260506190439 25 351 3.2 8.0 0.00 0.05 0.05 71 1012.2
20260506190435 25 337 1.6 8.0 0.00 0.05 0.05 72 1012.4
20260506185433 25 55 3.2 8.0 0.00 0.05 0.05 70 1012.4
20260506184939 25 340 0.0 4.8 0.00 0.05 0.05 73 1012.2
20260506184935 26 4 3.2 8.0 0.00 0.05 0.05 70 1012.4
20260506183933 25 344 1.6 6.4 0.00 0.05 0.05 72 1012.1
20260506183438 25 49 0.0 4.8 0.03 0.05 0.05 72 1012.3
20260506183434 25 341 1.6 6.4 0.03 0.05 0.05 72 1012.2
20260506182433 25 338 1.6 3.2 0.03 0.05 0.05 75 1012.4
20260506181934 24 329 0.0 4.8 0.03 0.05 0.05 74 1012.4
20260506181434 24 350 3.2 4.8 0.03 0.05 0.05 74 1012.4
20260506180933 23 344 1.6 3.2 0.03 0.05 0.05 77 1012.3
20260506180434 23 31 0.0 6.4 0.03 0.05 0.05 77 1012.2
20260506175935 23 30 3.2 6.4 0.03 0.05 0.05 79 1012.3
20260506175432 22 30 0.0 9.7 0.03 0.05 0.05 81 1012.2
20260506174932 22 49 1.6 9.7 0.03 0.05 0.05 79 1012.2
20260506174433 22 79 1.6 6.4 0.03 0.05 0.05 81 1012.2
20260506173933 21 327 0.0 3.2 0.03 0.05 0.05 82 1012.3
20260506173433 21 52 0.0 4.8 0.03 0.03 0.03 83 1012.5
20260506172933 21 323 3.2 6.4 0.03 0.03 0.03 84 1012.4
20260506172437 20 341 1.6 14.5 0.03 0.03 0.03 85 1012.5
20260506172433 20 320 1.6 8.0 0.03 0.03 0.03 85 1012.5
20260506172053 20 24 4.8 14.5 0.03 0.03 0.03 85 1012.6
20260506170932 20 109 1.6 6.4 0.03 0.03 0.03 82 1012.5
20260506170431 19 73 1.6 9.7 0.03 0.03 0.03 82 1012.4
20260506165931 18 32 3.2 9.7 0.03 0.03 0.03 82 1012.4
20260506165431 18 323 3.2 6.4 0.03 0.03 0.03 81 1012.7
20260506164932 18 323 3.2 6.4 0.03 0.03 0.03 81 1012.8
20260506164431 18 82 3.2 6.4 0.03 0.03 0.03 83 1012.8
20260506163933 17 200 0.0 4.8 0.03 0.03 0.03 85 1012.9
20260506163430 17 310 1.6 8.0 0.00 0.00 0.00 85 1013.1
20260506162931 17 54 3.2 14.5 0.00 0.00 0.00 86 1013.4
20260506162430 18 355 6.4 14.5 0.00 0.00 0.00 85 1013.6
20260506161931 18 303 3.2 16.1 0.00 0.00 0.00 85 1013.7
20260506161430 18 10 6.4 16.1 0.00 0.00 0.00 85 1013.8
20260506160930 19 110 3.2 14.5 0.00 0.00 0.00 85 1013.7
20260506160430 19 319 4.8 16.1 0.00 0.00 0.00 85 1013.6
20260506155931 20 314 6.4 16.1 0.00 0.00 0.00 85 1013.6
20260506155431 20 316 4.8 14.5 0.00 0.00 0.00 84 1013.4
20260506154929 20 330 4.8 20.9 0.00 0.00 0.00 83 1013.3
20260506154430 21 324 4.8 20.9 0.00 0.00 0.00 82 1013.1
20260506153930 22 327 3.2 11.3 0.00 0.00 0.00 81 1013.1
20260506153431 23 329 4.8 11.3 0.00 0.00 0.00 80 1013.0
20260506152930 25 338 0.0 1.6 0.00 0.00 0.00 85 1012.7
20260506152430 25 120 0.0 1.6 0.00 0.00 0.00 84 1012.2
20260506151930 25 120 0.0 1.6 0.00 0.00 0.00 85 1011.9
20260506151430 25 120 0.0 1.6 0.00 0.00 0.00 85 1012.0
20260506150929 25 118 0.0 1.6 0.00 0.00 0.00 85 1012.0
20260506150429 25 120 0.0 1.6 0.00 0.00 0.00 85 1011.9
20260506145930 25 118 0.0 1.6 0.00 0.00 0.00 84 1011.9
20260506145430 25 120 0.0 4.8 0.00 0.00 0.00 85 1011.6
20260506144929 25 131 0.0 4.8 0.00 0.00 0.00 85 1011.5
20260506144430 25 134 1.6 4.8 0.00 0.00 0.00 84 1011.4
20260506143929 25 134 1.6 3.2 0.00 0.00 0.00 84 1011.3
20260506143429 25 134 1.6 6.4 0.00 0.00 0.00 84 1011.0
20260506142934 25 138 3.2 6.4 0.00 0.00 0.00 84 1010.8
20260506142927 25 134 3.2 6.4 0.00 0.00 0.00 84 1011.1
20260506141929 25 127 3.2 4.8 0.00 0.00 0.00 84 1010.6
20260506141429 25 144 3.2 4.8 0.00 0.00 0.00 83 1010.7
20260506140929 25 141 0.0 0.0 0.00 0.00 0.00 83 1011.0
20260506140428 24 141 0.0 0.0 0.00 0.00 0.00 83 1011.5
20260506135928 24 141 0.0 0.0 0.00 0.00 0.00 81 1011.3
20260506135428 24 141 0.0 3.2 0.00 0.00 0.00 81 1010.9
20260506134930 24 141 0.0 3.2 0.00 0.00 0.00 82 1010.6
20260506134427 24 141 0.0 3.2 0.00 0.00 0.00 81 1010.4
20260506133927 24 141 0.0 3.2 0.00 0.00 0.00 81 1010.5
20260506133427 24 141 0.0 3.2 0.00 0.00 0.00 81 1010.4
20260506132929 24 141 0.0 6.4 0.00 0.00 0.00 81 1010.4
20260506132427 24 141 3.2 6.4 0.00 0.00 0.00 81 1010.4
20260506131926 24 114 1.6 4.8 0.00 0.00 0.00 81 1010.3
20260506131427 24 124 1.6 4.8 0.00 0.00 0.00 81 1010.3
20260506130928 24 134 3.2 4.8 0.00 0.00 0.00 81 1010.3
20260506130432 24 138 3.2 4.8 0.00 0.00 0.00 81 1010.2
20260506130428 24 142 1.6 4.8 0.00 0.00 0.00 81 1010.3
20260506125427 24 140 1.6 4.8 0.00 0.00 0.00 81 1010.1
20260506124926 23 140 0.0 3.2 0.00 0.00 0.00 80 1010.0
20260506124426 23 140 0.0 3.2 0.00 0.00 0.00 81 1010.1
20260506123927 23 140 1.6 3.2 0.00 0.00 0.00 81 1010.1
20260506123428 23 140 0.0 4.8 0.00 0.00 0.00 81 1010.1
20260506122928 23 140 3.2 4.8 0.00 0.00 0.00 81 1010.0
20260506122425 23 138 3.2 4.8 0.00 0.00 0.00 81 1010.0
20260506121926 23 140 1.6 4.8 0.00 0.00 0.00 82 1010.1
20260506121426 23 130 0.0 0.0 0.00 0.00 0.00 82 1010.1
20260506120925 23 130 0.0 0.0 0.00 0.00 0.00 82 1010.1
20260506120425 23 130 0.0 0.0 0.00 0.00 0.00 82 1010.0
20260506115924 23 130 0.0 4.8 0.00 0.00 0.00 82 1009.9
20260506115425 23 130 0.0 4.8 0.00 0.00 0.00 82 1009.8
20260506114924 23 130 1.6 4.8 0.00 0.00 0.00 81 1009.9
20260506114425 23 130 1.6 3.2 0.00 0.00 0.00 81 1009.8
20260506113931 23 130 0.0 1.6 0.00 0.00 0.00 82 1009.9
20260506113926 23 130 0.0 1.6 0.00 0.00 0.00 81 1009.9
20260506113545 24 130 0.0 1.6 0.00 0.00 0.00 82 1009.9
20260506112425 24 130 0.0 1.6 0.00 0.00 0.00 82 1009.9
20260506111925 24 130 0.0 4.8 0.00 0.00 0.00 82 1009.9
20260506111425 24 130 1.6 4.8 0.00 0.00 0.00 82 1009.9
20260506110924 24 125 0.0 3.2 0.00 0.00 0.00 82 1009.9
20260506110429 24 125 0.0 0.0 0.00 0.00 0.00 83 1009.9
20260506110423 24 125 1.6 3.2 0.00 0.00 0.00 82 1009.8
20260506105423 24 125 0.0 1.6 0.00 0.00 0.00 83 1009.9
20260506104929 24 125 0.0 0.0 0.00 0.00 0.00 83 1009.8
20260506104924 24 125 0.0 1.6 0.00 0.00 0.00 83 1009.8
20260506103923 24 125 0.0 4.8 0.00 0.00 0.00 83 1009.7
20260506103424 24 125 1.6 4.8 0.00 0.00 0.00 83 1009.6
20260506102924 24 131 0.0 0.0 0.00 0.00 0.00 83 1009.5
20260506102424 24 131 0.0 4.8 0.00 0.00 0.00 83 1009.6
20260506101922 24 131 0.0 4.8 0.00 0.00 0.00 83 1009.6
20260506101426 24 137 3.2 4.8 0.00 0.00 0.00 83 1009.5
20260506101422 24 140 1.6 4.8 0.00 0.00 0.00 83 1009.4
20260506100424 24 134 0.0 11.3 0.00 0.00 0.00 83 1009.4
20260506095923 24 134 0.0 11.3 0.00 0.00 0.00 83 1009.3
20260506095424 24 142 0.0 6.4 0.00 0.00 0.00 82 1009.2
20260506094922 24 125 3.2 8.0 0.00 0.00 0.00 82 1009.2
20260506094422 24 154 1.6 8.0 0.00 0.00 0.00 82 1009.0
20260506093924 24 148 3.2 6.4 0.00 0.00 0.00 82 1009.0
20260506093423 24 145 1.6 4.8 0.00 0.00 0.00 82 1009.0
20260506092922 24 140 1.6 8.0 0.00 0.00 0.00 82 1008.9
20260506092422 24 147 4.8 8.0 0.00 0.00 0.00 82 1008.8
20260506091923 24 138 3.2 8.0 0.00 0.00 0.00 82 1008.8
20260506091422 24 142 3.2 6.4 0.00 0.00 0.00 82 1008.8
20260506090921 24 140 3.2 11.3 0.00 0.00 0.00 82 1008.7
20260506090421 24 120 6.4 11.3 0.00 0.00 0.00 82 1008.5
20260506085923 24 152 4.8 6.4 0.00 0.00 0.00 82 1008.5
20260506085425 24 158 3.2 8.0 0.00 0.00 0.00 83 1008.6
20260506085421 24 159 3.2 6.4 0.00 0.00 0.00 83 1008.7
20260506084422 24 141 4.8 8.0 0.00 0.00 0.00 83 1008.7
20260506083921 24 137 4.8 9.7 0.00 0.00 0.00 83 1008.7
20260506083420 24 140 4.8 14.5 0.00 0.00 0.00 83 1008.7
20260506082922 24 118 4.8 14.5 0.00 0.00 0.00 83 1008.7
20260506082421 24 164 6.4 14.5 0.00 0.00 0.00 83 1008.7
20260506081921 24 142 3.2 14.5 0.00 0.00 0.00 83 1008.7
20260506081420 24 154 6.4 8.0 0.00 0.00 0.00 83 1008.6
20260506080922 24 137 3.2 9.7 0.00 0.00 0.00 83 1008.7
20260506080421 24 140 4.8 9.7 0.00 0.00 0.00 83 1008.7
20260506073420 24 141 4.8 11.3 0.00 0.00 0.00 83 1009.1
20260506072925 24 137 4.8 9.7 0.00 0.00 0.00 84 1009.1
20260506072921 24 159 3.2 9.7 0.00 0.00 0.00 83 1009.0
20260506071919 24 148 4.8 8.0 0.00 0.00 0.00 84 1009.3
20260506071421 24 127 3.2 9.7 0.00 0.00 0.00 84 1009.2
20260506070920 24 147 6.4 11.3 0.00 0.00 0.00 84 1009.1
20260506070423 24 159 4.8 14.5 0.00 0.00 0.00 84 1009.3
20260506070419 24 148 6.4 11.3 0.00 0.00 0.00 84 1009.2
20260506061919 24 137 6.4 16.1 0.00 0.00 0.00 83 1009.3
20260506061418 24 147 3.2 16.1 0.00 0.00 0.00 83 1009.2
20260506060920 24 137 3.2 8.0 0.00 0.00 0.00 83 1009.2
20260506060419 24 145 4.8 9.7 0.00 0.00 0.00 83 1009.3
20260506051416 25 161 3.2 14.5 0.00 0.00 0.00 84 1009.2
20260506050923 25 140 4.8 14.5 0.00 0.00 0.00 84 1009.4
20260506050919 25 152 4.8 9.7 0.00 0.00 0.00 84 1009.3
20260506044917 25 151 4.8 9.7 0.00 0.00 0.00 84 1009.3
20260506044418 25 142 6.4 14.5 0.00 0.00 0.00 84 1009.3
20260506043917 25 137 4.8 14.5 0.00 0.00 0.00 84 1009.3
20260506043416 25 137 4.8 11.3 0.00 0.00 0.00 84 1009.3
20260506042915 25 124 4.8 11.3 0.00 0.00 0.00 84 1009.3
20260506042416 25 138 4.8 8.0 0.00 0.00 0.00 84 1009.3
20260506041917 25 137 4.8 9.7 0.00 0.00 0.00 84 1009.1
20260506041417 25 133 6.4 14.5 0.00 0.00 0.00 84 1009.1
20260506040922 25 154 4.8 14.5 0.00 0.00 0.00 84 1009.0
20260506040916 25 140 6.4 14.5 0.00 0.00 0.00 84 1009.0
20260506035915 25 131 6.4 11.3 0.00 0.00 0.00 84 1008.9
20260506035417 25 127 3.2 9.7 0.00 0.00 0.00 84 1008.9
20260506034917 25 137 4.8 9.7 0.00 0.00 0.00 84 1008.8
20260506034415 25 83 4.8 11.3 0.00 0.00 0.00 84 1008.8
20260506033916 25 151 6.4 11.3 0.00 0.00 0.00 84 1008.8
20260506033416 25 147 8.0 11.3 0.00 0.00 0.00 84 1008.8
20260506032916 25 164 6.4 11.3 0.00 0.00 0.00 84 1008.6
20260506032415 25 140 4.8 9.7 0.00 0.00 0.00 84 1008.6
20260506031916 25 155 4.8 9.7 0.00 0.00 0.00 83 1008.6
20260506031414 25 152 4.8 9.7 0.00 0.00 0.00 83 1008.5
20260506030914 25 127 3.2 11.3 0.00 0.00 0.00 83 1008.4
20260506030415 26 148 3.2 11.3 0.00 0.00 0.00 83 1008.3
20260506025914 26 159 6.4 14.5 0.00 0.00 0.00 83 1008.2
20260506025415 26 118 8.0 14.5 0.00 0.00 0.00 83 1008.2
20260506024914 26 135 6.4 11.3 0.00 0.00 0.00 82 1008.1
20260506024415 26 123 6.4 9.7 0.00 0.00 0.00 82 1008.0
20260506023914 26 142 4.8 11.3 0.00 0.00 0.00 82 1007.9
20260506023414 26 142 4.8 14.5 0.00 0.00 0.00 81 1007.8
20260506022915 26 134 6.4 14.5 0.00 0.00 0.00 80 1007.8
20260506022415 26 127 4.8 11.3 0.00 0.00 0.00 80 1007.6
20260506021913 26 141 4.8 11.3 0.00 0.00 0.00 80 1007.5
20260506021415 26 134 3.2 8.0 0.00 0.00 0.00 79 1007.3
20260506020918 26 111 4.8 6.4 0.00 0.00 0.00 79 1007.2
20260506020912 26 148 3.2 8.0 0.00 0.00 0.00 79 1007.2
20260506015913 27 117 3.2 8.0 0.00 0.00 0.00 79 1007.2
20260506015413 27 138 4.8 8.0 0.00 0.00 0.00 78 1007.1
20260506014914 27 147 3.2 6.4 0.00 0.00 0.00 78 1007.1
20260506014413 27 130 3.2 8.0 0.00 0.00 0.00 78 1007.0
20260506013912 27 120 3.2 8.0 0.00 0.00 0.00 77 1007.1
20260506013417 27 110 4.8 8.0 0.00 0.00 0.00 77 1007.0
20260506013412 27 117 3.2 8.0 0.00 0.00 0.00 77 1007.1
20260506012415 27 118 3.2 6.4 0.00 0.00 0.00 77 1007.0
20260506011912 27 134 3.2 6.4 0.00 0.00 0.00 76 1007.0
20260506011413 27 121 3.2 6.4 0.00 0.00 0.00 76 1007.0
20260506010916 27 130 1.6 3.2 0.00 0.00 0.00 76 1007.1
20260506010911 27 135 3.2 6.4 0.00 0.00 0.00 76 1007.1
20260506005912 27 138 1.6 4.8 0.00 0.00 0.00 75 1007.1
20260506005418 28 147 3.2 6.4 0.00 0.00 0.00 75 1007.1
20260506005412 28 138 1.6 6.4 0.00 0.00 0.00 75 1007.0
20260506004411 28 125 3.2 6.4 0.00 0.00 0.00 75 1007.0
20260506003912 28 125 1.6 6.4 0.00 0.00 0.00 75 1007.0
20260506003411 28 134 3.2 6.4 0.00 0.00 0.00 74 1007.0
20260506002912 28 140 1.6 6.4 0.00 0.00 0.00 74 1006.9
20260506002413 28 140 1.6 6.4 0.00 0.00 0.00 74 1006.9
20260506001912 28 147 3.2 4.8 0.00 0.00 0.00 74 1006.9
20260506001411 28 133 1.6 4.8 0.00 0.00 0.00 73 1006.9
20260506000912 28 140 3.2 8.0 0.00 0.00 0.00 73 1006.8
20260506000410 28 151 3.2 8.0 0.00 0.00 0.00 73 1006.7
20260505235917 28 130 3.2 8.0 0.00 0.00 0.00 73 1006.7
20260505235913 28 152 3.2 8.0 0.00 0.00 0.00 73 1006.7
20260505234910 28 116 4.8 8.0 0.00 0.00 0.00 72 1006.7
20260505234411 28 147 3.2 9.7 0.00 0.00 0.00 72 1006.7
20260505233910 28 127 4.8 9.7 0.00 0.00 0.00 71 1006.6
20260505233411 28 141 4.8 11.3 0.00 0.00 0.00 72 1006.5
20260505232909 28 141 3.2 11.3 0.00 0.00 0.00 71 1006.5
20260505232411 28 117 6.4 9.7 0.00 0.00 0.00 71 1006.6
20260505231909 28 128 3.2 8.0 0.00 0.00 0.00 71 1006.7
20260505231410 28 140 3.2 6.4 0.00 0.00 0.00 72 1006.7
20260505230909 28 147 1.6 8.0 0.00 0.00 0.00 72 1006.6
20260505230409 28 135 3.2 8.0 0.00 0.00 0.00 71 1006.5
20260505225910 28 154 4.8 9.7 0.00 0.00 0.00 71 1006.5
20260505225409 28 145 4.8 9.7 0.00 0.00 0.00 71 1006.3
20260505224913 28 147 4.8 9.7 0.00 0.00 0.00 70 1006.3
20260505224909 28 154 1.6 9.7 0.00 0.00 0.00 70 1006.5
20260505223915 28 142 6.4 11.3 0.00 0.00 0.00 70 1006.2
20260505223910 28 141 4.8 11.3 0.00 0.00 0.00 70 1006.2
20260505222910 29 130 4.8 11.3 0.00 0.00 0.00 70 1006.3
20260505222409 29 141 1.6 9.7 0.00 0.00 0.00 70 1006.2
20260505221908 29 165 4.8 11.3 0.00 0.00 0.00 69 1006.3
20260505221408 29 148 6.4 11.3 0.00 0.00 0.00 70 1006.3
20260505220908 29 158 4.8 11.3 0.00 0.00 0.00 69 1006.3
20260505220407 29 130 6.4 11.3 0.00 0.00 0.00 69 1006.3
20260505215909 29 142 4.8 9.7 0.00 0.00 0.00 69 1006.3
20260505215413 29 138 4.8 9.7 0.00 0.00 0.00 67 1006.9
20260505215409 29 124 1.6 9.7 0.00 0.00 0.00 68 1006.6
20260505214409 29 149 1.6 17.7 0.00 0.00 0.00 67 1006.9
20260505213913 30 164 4.8 14.5 0.00 0.00 0.00 67 1006.9
20260505213907 29 117 6.4 17.7 0.00 0.00 0.00 66 1006.8
20260505212907 30 157 4.8 16.1 0.00 0.00 0.00 67 1007.1
20260505212409 29 142 6.4 16.1 0.00 0.00 0.00 68 1007.0
20260505211915 29 147 4.8 9.7 0.00 0.00 0.00 68 1007.1
20260505211908 29 140 3.2 16.1 0.00 0.00 0.00 69 1007.0
20260505211409 29 149 8.0 16.1 0.00 0.00 0.00 68 1007.1
20260505210407 29 147 4.8 9.7 0.00 0.00 0.00 69 1007.1
20260505205907 28 169 4.8 11.3 0.00 0.00 0.00 71 1007.2
20260505205407 28 159 4.8 11.3 0.00 0.00 0.00 70 1007.2